Tracking 25723 objects as of 27-Jun-2022
HD Live streaming from Space Station
objects crossing your sky now

DELTA 1 DEB

Track DELTA 1 DEB now!
10-day predictions


NORAD ID: 12230
Int'l Code: 1978-026BX
Perigee: 622.3 km
Apogee: 720.2 km
Inclination: 97.9 °
Period: 98.0 minutes
Semi major axis: 7042 km
RCS: 0.0615 m2 (small)
Launch date: March 5, 1978
Source: United States (US)
Launch site: AIR FORCE WESTERN TEST RANGE (AFWTR)

Note: This is SATELLITE DEBRIS
aabbcc
Your satellite tracking list
Your tracking list is empty




NASA's NSSDC Master Catalog

Two Line Element Set (TLE):
1 12230U 78026BX  22177.89625416  .00001825  00000-0  30787-3 0  9995
2 12230  97.8822 162.9002 0069490 121.6938 239.1068 14.69043534165857
Source of the keplerian elements: AFSPC